Simultaneous Nadir Overpasses (SNOs) Predictions

Prediction of SNOs between METOP-C and METOP-A Satellite Orbit:

Table of predicted SNOs for the next 14.0 days since TLE Epoch: 11/20/2021
Index Date (METOP-C) Time (METOP-C) Lat,Lon (METOP-C) SZA (METOP-C ) Date (METOP-A) Time (METOP-A) Lat,Lon (METOP-A) SZA (METOP-A ) Distance(km) Time Diff (sec)
1 11/22/2021 05:38:34 81.23, 139.30 104.09 11/22/2021 05:39:34 81.22, 139.28 104.11 1.10 60
2 11/22/2021 06:29:15 -81.23, -53.35 75.90 11/22/2021 06:29:54 -81.22, -53.38 75.89 0.78 39
3 11/22/2021 07:19:55 81.23, 114.20 104.14 11/22/2021 07:19:46 81.22, 114.16 104.12 1.41 9
4 11/22/2021 08:10:36 -81.23, -78.46 75.86 11/22/2021 08:10:06 -81.23, -78.52 75.89 1.27 30
5 11/28/2021 11:08:53 -81.23,-123.31 74.77 11/28/2021 11:09:48 -81.22,-123.22 74.75 1.93 55
6 11/28/2021 11:59:34 81.22, 43.93 105.23 11/28/2021 11:59:51 81.23, 43.83 105.23 2.10 17
7 11/28/2021 12:50:14 -81.23,-148.42 74.73 11/28/2021 12:50:04 -81.23,-148.60 74.76 3.00 10
8 11/28/2021 13:40:55 81.23, 18.82 105.27 11/28/2021 13:40:06 81.23, 18.87 105.25 0.86 49



Historial Predications of SNOs between METOP-C and METOP-A
